Weather Roundup
Issued by NWS Springfield, MO

Home | Current Version | Previous Version | Text Only | Print | Product List | Glossary On
Versions: 1 2 3 4 5 6 7 8 9 10 11 12 13 14 15 16 17 18 19 20 21 22 23 24 25 26 27 28 29 30 31 32 33 34 35 36 37 38 39 40 41 42 43 44 45 46 47 48 49 50
000
NZUS99 KSGF 032307
HRRSGF

HOURLY WEATHER
NATIONAL WEATHER SERVICE SPRINGFIELD MO
500 PM CST TUE MAR 03 2015

......SGF CWA......

CITY           SKY/WX    TMP DP  RH WIND       PRES   REMARKS
SPRINGFIELD    CLOUDY    47  42  83 NW10      29.84S
JOPLIN         CLOUDY    47  44  90 SW3       29.85S
WEST PLAINS    FOG       48  47  96 SW3       29.82F VSB 1/2
ROLLA          CLOUDY    44  39  82 W14       29.83R
OSAGE BEACH    CLOUDY    46  37  71 SW6       29.85R
BRANSON        CLOUDY    54  50  87 SW7       29.83R

......SURROUNDING SGF CWA......

CITY           SKY/WX    TMP DP  RH WIND       PRES   REMARKS
CHANUTE        CLOUDY    47  37  68 N14       29.85R
PARSONS        CLOUDY    49  41  74 W3        29.86R
COFFEYVILLE    CLOUDY    50  40  68 N9        29.84S
EMPORIA        CLOUDY    42  28  57 N9        29.88R
GROVE OK       CLOUDY    52  52 100 W3        29.86R
ROGERS AR      CLOUDY    50  48  93 W7        29.84R
SILOAM SPRINGS CLOUDY    52  45  76 W5        29.85S
HARRISON AR    LGT RAIN  56  53  90 CALM      29.82S
NEAR YELLVILLE CLOUDY    55  48  76 S6        29.81S

......KANSAS AND MISSOURI......

CITY           SKY/WX    TMP DP  RH WIND       PRES   REMARKS
KANSAS CTY INT CLOUDY    40  29  64 N7        29.87R
DOWNTOWN KC    CLOUDY    43  28  55 N9        29.88R
COLUMBIA       CLOUDY    42  40  92 NW7       29.83R FOG
SEDALIA        CLOUDY    41  36  82 N13G21    29.87R
ST JOSEPH      CLOUDY    37  27  67 N22       29.90R WCI  26
ST LOUIS       CLOUDY    44  40  85 NW3       29.83S FOG
SPIRIT OF STL  CLOUDY    43  40  89 CALM      29.81F
WICHITA        CLOUDY    44  28  53 NE12      29.86F
TOPEKA         CLOUDY    43  27  53 N13       29.89R
OLATHE         CLOUDY    41  29  62 N10       29.87R

......TENNESSEE......

CITY           SKY/WX    TMP DP  RH WIND       PRES   REMARKS
MEMPHIS        LGT RAIN  58  56  93 SW12G22   29.92F VSB 1/2
NASHVILLE      CLOUDY    62  58  86 S14       29.94S

......ARKANSAS.......

CITY           SKY/WX    TMP DP  RH WIND       PRES   REMARKS
FAYETTEVILLE   CLOUDY    49  48  97 S8        29.84S
FT SMITH       CLOUDY    43  41  93 NE12      29.86R FOG
LITTLE ROCK    CLOUDY    56  51  84 S7        29.89S

......OKLAHOMA.......

CITY           SKY/WX    TMP DP  RH WIND       PRES   REMARKS
TULSA          CLOUDY    57  46  66 NW7       29.82R
PONCA CITY     LGT RAIN  49  42  77 N3        29.84S
MCALESTER      CLOUDY    49  47  93 S5        29.84S
OKLAHOMA CITY  CLOUDY    55  42  61 NW5       29.82S

......IOWA............

CITY           SKY/WX    TMP DP  RH WIND       PRES   REMARKS
DES MOINES     CLOUDY    31  21  66 N18G30    29.87R WCI  19
QUAD CITIES    CLOUDY    34  28  79 W9        29.78R WCI  27

......ILLINOIS........

CITY           SKY/WX    TMP DP  RH WIND       PRES   REMARKS
QUINCY         CLOUDY    36  34  92 NW8       29.82R FOG     WCI  30
CHICAGO        CLOUDY    34  29  82 W14       29.69R WCI  25



USA.gov is the U.S. government's official web portal to all federal, state and local government web resources and services.